UT4UGW-13 Weather Reports


Display with metric or nautical units.
time (UTC)temp
F
wind
direction
speed
MPH
gust
MPH
rain 1hr
in
rain 24hr
in
rain mn
in
humidity
%
barometer
mb
20260505025108 66 0.0 0.0 0.00 0.00 0.00 983.4
20260505024038 66 0.0 0.0 0.00 0.00 0.00 983.3
20260505023038 66 0.0 0.0 0.00 0.00 0.00 983.3
20260505022038 67 0.0 0.0 0.00 0.00 0.00 983.3
20260505021008 67 0.0 0.0 0.00 0.00 0.00 983.4
20260505015938 67 0.0 0.0 0.00 0.00 0.00 983.5
20260505014908 66 0.0 0.0 0.00 0.00 0.00 983.5
20260505013908 66 0.0 0.0 0.00 0.00 0.00 983.6
20260505012908 66 0.0 0.0 0.00 0.00 0.00 983.7
20260505011840 66 0.0 0.0 0.00 0.00 0.00 983.8
20260505010840 67 0.0 0.0 0.00 0.00 0.00 983.6
20260505005808 67 0.0 0.0 0.00 0.00 0.00 983.7
20260505004738 67 0.0 0.0 0.00 0.00 0.00 983.7
20260505003738 67 0.0 0.0 0.00 0.00 0.00 983.7
20260505002708 67 0.0 0.0 0.00 0.00 0.00 983.8
20260505001708 67 0.0 0.0 0.00 0.00 0.00 983.8
20260505000638 67 0.0 0.0 0.00 0.00 0.00 983.8
20260504235608 67 0.0 0.0 0.00 0.00 0.00 983.9
20260504234608 67 0.0 0.0 0.00 0.00 0.00 983.9
20260504233538 67 0.0 0.0 0.00 0.00 0.00 984.0
20260504232538 67 0.0 0.0 0.00 0.00 0.00 983.9
20260504231508 67 0.0 0.0 0.00 0.00 0.00 984.0
20260504230508 67 0.0 0.0 0.00 0.00 0.00 984.0
20260504225438 67 0.0 0.0 0.00 0.00 0.00 984.2
20260504224408 67 0.0 0.0 0.00 0.00 0.00 984.2
20260504223408 68 0.0 0.0 0.00 0.00 0.00 984.2
20260504222338 68 0.0 0.0 0.00 0.00 0.00 984.3
20260504221338 68 0.0 0.0 0.00 0.00 0.00 984.2
20260504220308 68 0.0 0.0 0.00 0.00 0.00 984.3
20260504215238 68 0.0 0.0 0.00 0.00 0.00 984.3
20260504214238 68 0.0 0.0 0.00 0.00 0.00 984.3
20260504212238 68 0.0 0.0 0.00 0.00 0.00 984.4
20260504211208 68 0.0 0.0 0.00 0.00 0.00 984.4
20260504210208 68 0.0 0.0 0.00 0.00 0.00 984.2
20260504205138 68 0.0 0.0 0.00 0.00 0.00 984.3
20260504204108 68 0.0 0.0 0.00 0.00 0.00 984.3
20260504203108 68 0.0 0.0 0.00 0.00 0.00 984.3
20260504202038 68 0.0 0.0 0.00 0.00 0.00 984.2
20260504201008 69 0.0 0.0 0.00 0.00 0.00 984.1
20260504195938 69 0.0 0.0 0.00 0.00 0.00 984.1
20260504194938 69 0.0 0.0 0.00 0.00 0.00 984.1
20260504193908 69 0.0 0.0 0.00 0.00 0.00 984.1
20260504192838 69 0.0 0.0 0.00 0.00 0.00 984.1
20260504191838 69 0.0 0.0 0.00 0.00 0.00 983.9
20260504190808 69 0.0 0.0 0.00 0.00 0.00 984.0
20260504185738 70 0.0 0.0 0.00 0.00 0.00 983.9
20260504184740 70 0.0 0.0 0.00 0.00 0.00 983.8
20260504183708 70 0.0 0.0 0.00 0.00 0.00 983.9
20260504182708 70 0.0 0.0 0.00 0.00 0.00 983.8
20260504181708 70 0.0 0.0 0.00 0.00 0.00 983.7
20260504180638 71 0.0 0.0 0.00 0.00 0.00 983.7
20260504175608 71 0.0 0.0 0.00 0.00 0.00 983.7
20260504174608 71 0.0 0.0 0.00 0.00 0.00 983.6
20260504173538 71 0.0 0.0 0.00 0.00 0.00 983.6
20260504172508 72 0.0 0.0 0.00 0.00 0.00 983.5
20260504171438 72 0.0 0.0 0.00 0.00 0.00 983.3
20260504170438 73 0.0 0.0 0.00 0.00 0.00 983.3
20260504160208 78 0.0 0.0 0.00 0.00 0.00 983.2
20260504151138 80 0.0 0.0 0.00 0.00 0.00 983.4
20260504150108 80 0.0 0.0 0.00 0.00 0.00 983.6
20260504140938 80 0.0 0.0 0.00 0.00 0.00 983.8
20260504130808 79 0.0 0.0 0.00 0.00 0.00 984.2
20260504110507 71 0.0 0.0 0.00 0.00 0.00 985.4
20260504100407 70 0.0 0.0 0.00 0.00 0.00 985.8
20260504081237 68 0.0 0.0 0.00 0.00 0.00 986.3
20260504080237 68 0.0 0.0 0.00 0.00 0.00 986.3
20260504070137 67 0.0 0.0 0.00 0.00 0.00 986.3
20260504050007 66 0.0 0.0 0.00 0.00 0.00 986.0
20260504044937 66 0.0 0.0 0.00 0.00 0.00 986.0
20260504043907 66 0.0 0.0 0.00 0.00 0.00 985.9
20260504042841 66 0.0 0.0 0.00 0.00 0.00 985.9
20260504041807 66 0.0 0.0 0.00 0.00 0.00 985.9
20260504040807 65 0.0 0.0 0.00 0.00 0.00 985.9
20260504035737 65 0.0 0.0 0.00 0.00 0.00 985.8
20260504034737 65 0.0 0.0 0.00 0.00 0.00 985.9
20260504033707 65 0.0 0.0 0.00 0.00 0.00 985.8
20260504032707 65 0.0 0.0 0.00 0.00 0.00 985.9
20260504031637 65 0.0 0.0 0.00 0.00 0.00 985.7
20260504030607 65 0.0 0.0 0.00 0.00 0.00 985.5
20260504025607 65 0.0 0.0 0.00 0.00 0.00 985.6